Hourly Data Report for October 04, 2016

All times are specified in Local Standard Time (LST). Add 1 hour to adjust for Daylight Saving Time where and when it is observed.

FREDERICTON
NEW BRUNSWICK

45°52'08.000" N
66°32'14.000" W
20.70 m
8101505
71700
YFC

Download Data

Hourly Data (October 2016)
Hourly Data Report for October 4, 2016
Temp Definition
°C
Dew Point Temp Definition
°C
Rel Hum Definition
%
Wind Dir Definition
10's deg

Wind Spd Definition
km/h
Visibility Definition
km
Stn Press Definition
kPa
Hmdx Definition


Wind Chill Definition


Weather Definition


TIME
00:00 Legend Double Dagger 0.4 0.1 98   0 16.1 102.38     LegendNANA
01:00 Legend Double Dagger 0.5 0.4 99 33 8 1.0 102.41     Fog
02:00 Legend Double Dagger -0.8 -0.8 100 22 4 0.6 102.45   -2 Freezing Fog
03:00 Legend Double Dagger -1.3 -1.3 100 22 5 1.2 102.52   -3 Fog
04:00 Legend Double Dagger -1.5 -1.5 100 21 8 0.2 102.58   -5 Freezing Fog
05:00 Legend Double Dagger -1.5 -1.5 100 26 4 1.2 102.63   -3 Fog
06:00 Legend Double Dagger -1.2 -1.2 100 21 8 0.2 102.69   -4 Freezing Fog
07:00 Legend Double Dagger -1.2 -1.2 100 21 4 0.6 102.76   -3 Freezing Fog
08:00 Legend Double Dagger -0.2 -0.2 100 20 8 0.0 102.81   -3 Freezing Fog
09:00 Legend Double Dagger 1.9 1.9 100 18 4 16.1 102.81     LegendNANA
10:00 Legend Double Dagger 6.0 4.5 90   0 16.1 102.81     LegendNANA
11:00 Legend Double Dagger 10.4 3.7 63 16 8 16.1 102.79     LegendNANA
12:00 Legend Double Dagger 12.7 2.7 50 23 8 16.1 102.76     LegendNANA
13:00 Legend Double Dagger 14.2 3.2 47 LegendMM 8 16.1 102.69     LegendNANA
14:00 Legend Double Dagger 15.6 3.2 43 LegendMM 11 16.1 102.68     LegendNANA
15:00 Legend Double Dagger 16.0 2.8 41 20 9 16.1 102.63     LegendNANA
16:00 Legend Double Dagger 16.1 2.3 39 23 9 16.1 102.56     LegendNANA
17:00 Legend Double Dagger 15.3 3.8 46 20 13 16.1 102.54     LegendNANA
18:00 Legend Double Dagger 11.6 5.3 65 21 5 16.1 102.58     LegendNANA
19:00 Legend Double Dagger 7.7 5.7 87 21 5 16.1 102.59     LegendNANA
20:00 Legend Double Dagger 6.7 5.1 90 19 8 16.1 102.59     LegendNANA
21:00 Legend Double Dagger 5.7 4.8 94 20 11 16.1 102.62     LegendNANA
22:00 Legend Double Dagger 4.8 3.8 93 21 4 16.1 102.60     LegendNANA
23:00 Legend Double Dagger 3.2 2.8 97   0 14.5 102.63     LegendNANA

Notes on Data Quality.

Legend

  • E = Estimated
  • M = Missing
  • NA = Not Available
  • ‡ = Partner data that is not subject to review by the National Climate Archives
Date modified: